Home > Weather > Yverdon-les-Bains > Past weeks

Flag for Switzerland Past Weather in Yverdon-les-Bains, Vaud, Switzerland — Yesterday and Last 2 Weeks

Now
72 °F

Mild.


Feels Like: 74 °F
Forecast: 59 / 76 °F
Wind: 2 mph from Northeast

Location: Payerne

Current Time: Jul 23, 2016 at 1:21:15 PM

Latest Report: Jul 23, 2016 at 12:00 PM


Visibility: N/A

Pressure: 30.02 "Hg

Humidity: 70%

Dew Point: 61 °F

Location of Yverdon-les-BainsLocation

Past Weather in Yverdon-les-Bains — Graph

°F

Yverdon-les-Bains Temperature Yesterday

Maximum temperature yesterday: 73 °F (at 6:00 PM)
Minimum temperature yesterday: 64 °F (at 11:00 PM)
Average temperature yesterday: 67 °F

High & Low Weather Summary for the Past Weeks

 TemperatureHumidityPressure
High92 °F (Jul 20, 5:00 PM)97% (Jul 23, 1:00 AM)30.34 "Hg (Jul 23, 1:00 AM)
Low47 °F (Jul 15, 6:00 AM)26% (Jul 10, 5:00 PM)29.83 "Hg (Jul 10, 5:00 PM)
Average67 °F70%30.07 "Hg
* Reported Jul 8 12:00 PM — Jul 23 12:00 PM, Yverdon-les-Bains, Weather by CustomWeather, © 2016

Note: Actual official high and low records may vary slightly from our data, if they occured in-between our weather recording intervals... More about our weather records

Advertising

Yverdon-les-Bains Weather History for the Previous 24 Hours

Scroll right to see more
 ConditionsComfort  
Time TempWeatherWind HumidityBarometerVisibility
12:00 PM
Sat, Jul 23
72 °FMild.2 mph70%30.02 "HgN/A
11:00 AM70 °FOvercast.2 mph77%30.02 "Hg11 mi
10:00 AM67 °FMild.1 mph88%30.03 "HgN/A
9:00 AM65 °FMild.2 mph94%30.04 "HgN/A
8:00 AM64 °FLow clouds.2 mph94%30.03 "Hg4 mi
7:00 AM64 °FMild.1 mph96%30.03 "HgN/A
6:00 AM63 °FMild.3 mph96%30.02 "HgN/A
5:00 AM63 °FMild.3 mph95%30.02 "HgN/A
4:00 AM62 °FMild.2 mph95%30.03 "HgN/A
3:00 AM62 °FCool.1 mph97%30.02 "HgN/A
2:00 AM62 °FFog.2 mph96%30.03 "Hg4 mi
1:00 AM63 °FMild.2 mph97%30.03 "HgN/A
12:00 AM64 °FMild.No wind95%30.02 "HgN/A
11:00 PM
Fri, Jul 22
64 °FOvercast.1 mph96%30.02 "Hg12 mi
10:00 PM65 °FMild.3 mph92%30.03 "HgN/A
9:00 PM69 °FMild.3 mph83%29.99 "HgN/A
8:00 PM71 °FOvercast.2 mph70%29.96 "Hg12 mi
7:00 PM72 °FMild.2 mph70%29.95 "HgN/A
6:00 PM73 °FMild.2 mph72%29.94 "HgN/A
5:00 PM72 °FMild.3 mph77%29.96 "HgN/A
4:00 PM71 °FMild.3 mph74%29.96 "HgN/A
3:00 PM67 °FMild.1 mph82%29.98 "HgN/A
2:00 PM65 °FLight rain. Overcast.6 mph87%30.00 "Hg4 mi
1:00 PM64 °FMild.6 mph91%30.01 "HgN/A
Weather by CustomWeather, © 2016

See weather overviewHow to use our weather pages